TimeCDT,TemperatureF,Dew PointF,Humidity,Sea Level PressureIn,VisibilityMPH,Wind Direction,Wind SpeedMPH,Gust SpeedMPH,PrecipitationIn,Events,Conditions,WindDirDegrees,DateUTC
12:15 AM,52.3,44.8,75,30.27,10.0,NNE,10.4,-,N/A,,Overcast,30,2013-09-16 05:15:00
12:35 AM,52.0,43.7,73,30.28,10.0,NNE,8.1,-,N/A,,Overcast,20,2013-09-16 05:35:00
12:55 AM,51.6,42.4,71,30.29,10.0,North,9.2,17.3,N/A,,Overcast,10,2013-09-16 05:55:00
1:15 AM,51.1,40.8,68,30.29,10.0,NNE,12.7,-,N/A,,Overcast,20,2013-09-16 06:15:00
1:35 AM,50.7,40.1,67,30.29,10.0,NNE,6.9,-,N/A,,Overcast,30,2013-09-16 06:35:00
1:55 AM,50.0,41.0,71,30.30,10.0,NNE,6.9,-,N/A,,Overcast,30,2013-09-16 06:55:00
2:15 AM,49.5,40.5,71,30.30,10.0,NNE,6.9,-,N/A,,Overcast,20,2013-09-16 07:15:00
2:35 AM,48.7,39.7,71,30.31,10.0,North,9.2,-,N/A,,Overcast,360,2013-09-16 07:35:00
2:55 AM,47.8,38.5,70,30.31,10.0,North,10.4,-,N/A,,Overcast,360,2013-09-16 07:55:00
3:15 AM,46.8,39.2,75,30.32,10.0,North,9.2,-,N/A,,Overcast,360,2013-09-16 08:15:00
3:35 AM,45.7,39.2,78,30.32,10.0,North,5.8,-,N/A,,Overcast,350,2013-09-16 08:35:00
3:55 AM,43.9,39.2,84,30.33,10.0,North,3.5,-,N/A,,Scattered Clouds,350,2013-09-16 08:55:00
4:15 AM,43.7,39.6,85,30.34,10.0,Calm,Calm,-,N/A,,Mostly Cloudy,0,2013-09-16 09:15:00
4:35 AM,43.3,39.6,87,30.34,10.0,NNW,4.6,-,N/A,,Overcast,340,2013-09-16 09:35:00
4:55 AM,42.4,39.4,89,30.34,10.0,NNW,4.6,-,N/A,,Scattered Clouds,330,2013-09-16 09:55:00
5:15 AM,41.9,39.2,90,30.35,10.0,NNW,3.5,-,N/A,,Clear,330,2013-09-16 10:15:00
5:35 AM,41.0,39.2,93,30.35,10.0,NNW,4.6,-,N/A,,Clear,330,2013-09-16 10:35:00
5:55 AM,40.6,39.0,94,30.36,10.0,NW,4.6,-,N/A,,Clear,320,2013-09-16 10:55:00
6:15 AM,40.3,39.0,95,30.36,10.0,NNW,5.8,-,N/A,,Clear,330,2013-09-16 11:15:00
6:35 AM,40.3,39.2,96,30.37,10.0,NNW,5.8,-,N/A,,Clear,330,2013-09-16 11:35:00
6:55 AM,40.6,39.2,95,30.38,10.0,NNW,5.8,-,N/A,,Clear,340,2013-09-16 11:55:00
7:15 AM,41.4,39.9,95,30.38,10.0,NNW,5.8,-,N/A,,Clear,340,2013-09-16 12:15:00
7:35 AM,42.4,40.1,91,30.38,10.0,NNW,5.8,-,N/A,,Clear,340,2013-09-16 12:35:00
7:55 AM,43.9,40.8,89,30.39,10.0,North,6.9,-,N/A,,Clear,350,2013-09-16 12:55:00
8:15 AM,45.1,41.2,86,30.39,10.0,NNW,6.9,-,N/A,,Clear,340,2013-09-16 13:15:00
8:35 AM,46.9,41.5,81,30.40,10.0,NNW,9.2,-,N/A,,Clear,340,2013-09-16 13:35:00
8:55 AM,48.2,42.1,79,30.40,10.0,North,8.1,-,N/A,,Clear,350,2013-09-16 13:55:00
9:15 AM,49.3,41.5,75,30.41,10.0,North,9.2,-,N/A,,Clear,360,2013-09-16 14:15:00
9:35 AM,50.9,41.4,70,30.42,10.0,North,9.2,-,N/A,,Clear,360,2013-09-16 14:35:00
9:55 AM,51.6,41.7,69,30.42,10.0,North,9.2,-,N/A,,Clear,10,2013-09-16 14:55:00
10:15 AM,53.6,42.4,66,30.42,10.0,North,9.2,-,N/A,,Scattered Clouds,360,2013-09-16 15:15:00
10:35 AM,54.9,41.4,60,30.42,10.0,NNE,8.1,-,N/A,,Scattered Clouds,20,2013-09-16 15:35:00
10:55 AM,56.7,42.3,59,30.42,10.0,NE,8.1,-,N/A,,Scattered Clouds,50,2013-09-16 15:55:00
11:15 AM,57.2,40.6,54,30.42,10.0,NE,8.1,-,N/A,,Mostly Cloudy,50,2013-09-16 16:15:00
11:35 AM,57.2,39.7,52,30.42,10.0,NE,9.2,18.4,N/A,,Scattered Clouds,40,2013-09-16 16:35:00
11:55 AM,57.7,39.9,51,30.41,10.0,North,9.2,-,N/A,,Scattered Clouds,360,2013-09-16 16:55:00
12:15 PM,58.8,40.5,51,30.41,10.0,NE,8.1,-,N/A,,Clear,40,2013-09-16 17:15:00
12:35 PM,58.8,39.6,49,30.41,10.0,ENE,9.2,-,N/A,,Clear,60,2013-09-16 17:35:00
12:55 PM,59.7,37.9,44,30.41,10.0,NNE,3.5,-,N/A,,Clear,20,2013-09-16 17:55:00
1:15 PM,60.1,38.1,44,30.41,10.0,ENE,4.6,-,N/A,,Clear,70,2013-09-16 18:15:00
1:35 PM,60.6,36.9,41,30.40,10.0,NNE,5.8,-,N/A,,Clear,20,2013-09-16 18:35:00
1:55 PM,60.8,37.4,42,30.39,10.0,North,5.8,-,N/A,,Clear,10,2013-09-16 18:55:00
2:15 PM,61.3,36.5,40,30.39,10.0,North,6.9,-,N/A,,Clear,10,2013-09-16 19:15:00
2:35 PM,61.7,36.0,38,30.38,10.0,NNE,8.1,-,N/A,,Clear,20,2013-09-16 19:35:00
2:55 PM,61.7,37.9,41,30.38,10.0,NNE,5.8,-,N/A,,Clear,30,2013-09-16 19:55:00
3:15 PM,62.2,38.7,42,30.37,10.0,ENE,6.9,-,N/A,,Clear,60,2013-09-16 20:15:00
3:35 PM,62.1,36.9,39,30.37,10.0,NE,5.8,-,N/A,,Clear,50,2013-09-16 20:35:00
3:55 PM,62.2,36.7,39,30.37,10.0,North,8.1,-,N/A,,Clear,10,2013-09-16 20:55:00
4:15 PM,62.2,37.2,39,30.36,10.0,NNE,6.9,-,N/A,,Clear,30,2013-09-16 21:15:00
4:35 PM,62.2,37.6,40,30.36,10.0,ENE,5.8,-,N/A,,Clear,60,2013-09-16 21:35:00
4:55 PM,62.4,38.8,42,30.35,10.0,NE,9.2,-,N/A,,Clear,40,2013-09-16 21:55:00
5:15 PM,62.2,38.5,41,30.35,10.0,NNE,6.9,-,N/A,,Clear,30,2013-09-16 22:15:00
5:35 PM,61.9,37.9,41,30.35,10.0,NNE,5.8,-,N/A,,Clear,30,2013-09-16 22:35:00
5:55 PM,61.2,39.0,44,30.35,10.0,NNE,5.8,-,N/A,,Clear,20,2013-09-16 22:55:00
6:15 PM,60.1,40.8,49,30.35,10.0,East,8.1,-,N/A,,Clear,80,2013-09-16 23:15:00
6:35 PM,58.1,42.1,55,30.35,10.0,East,8.1,-,N/A,,Clear,80,2013-09-16 23:35:00
6:55 PM,55.6,41.5,59,30.34,10.0,ENE,8.1,-,N/A,,Clear,70,2013-09-16 23:55:00
7:15 PM,54.0,41.7,63,30.34,10.0,ENE,6.9,-,N/A,,Clear,70,2013-09-17 00:15:00
7:35 PM,52.9,41.5,65,30.34,10.0,ENE,6.9,-,N/A,,Clear,70,2013-09-17 00:35:00
7:55 PM,51.6,41.4,68,30.35,10.0,ENE,6.9,-,N/A,,Clear,70,2013-09-17 00:55:00
8:15 PM,50.5,41.0,70,30.35,10.0,ENE,9.2,-,N/A,,Clear,70,2013-09-17 01:15:00
8:35 PM,49.6,40.5,71,30.35,10.0,ENE,6.9,-,N/A,,Clear,70,2013-09-17 01:35:00
8:55 PM,48.6,40.3,73,30.36,10.0,East,5.8,-,N/A,,Clear,100,2013-09-17 01:55:00
9:15 PM,47.5,40.1,76,30.36,10.0,East,4.6,-,N/A,,Clear,90,2013-09-17 02:15:00
9:35 PM,47.1,40.1,77,30.37,10.0,ESE,3.5,-,N/A,,Clear,110,2013-09-17 02:35:00
9:55 PM,46.4,40.1,79,30.37,10.0,ENE,3.5,-,N/A,,Clear,70,2013-09-17 02:55:00
10:15 PM,45.9,40.3,81,30.37,10.0,Calm,Calm,-,N/A,,Clear,0,2013-09-17 03:15:00
10:35 PM,44.8,41.4,88,30.37,10.0,NE,3.5,-,N/A,,Clear,50,2013-09-17 03:35:00
10:55 PM,46.0,40.1,80,30.37,10.0,Calm,Calm,-,N/A,,Clear,0,2013-09-17 03:55:00
11:15 PM,45.5,39.9,81,30.37,10.0,NE,3.5,-,N/A,,Clear,40,2013-09-17 04:15:00
11:35 PM,45.5,39.9,81,30.37,10.0,NNE,3.5,-,N/A,,Clear,30,2013-09-17 04:35:00
11:55 PM,45.1,40.3,83,30.37,10.0,NNE,4.6,-,N/A,,Clear,30,2013-09-17 04:55:00